Flag for U.S.A. Weather past 2 weeks in Riverside, California, U.S.A.

Now
54 °F

Overcast.


Feels Like: 54 °F
Forecast: 45 / 59 °F
Wind: 3 mph from South

Location: Riverside Municipal Airport

Current Time: Dec 17, 2014 at 10:07:54 PM

Latest Report: Dec 17, 2014 at 8:53 PM


Visibility: 10 mi

Pressure: 30.07 "Hg

Humidity: 74%

Dew point: 46 °F

Location of RiversideLocation

Historic Weather in Riverside — Graph

°F

Riverside temperature yesterday

Maximum temperature yesterday: 58 °F (at 2:53 PM)
Minimum temperature yesterday: 50 °F (at 12:53 AM)
Average temperature yesterday: 53 °F

Past Weeks' High & Low Weather Summary

 TemperatureHumidityPressure
High80 °F (Dec 9, 2:53 PM)100% (Dec 11, 6:53 AM)30.23 "Hg (Dec 11, 6:53 AM)
Low42 °F (Dec 14, 6:53 AM)20% (Dec 9, 2:53 PM)29.82 "Hg (Dec 12, 4:53 AM)
Average58 °F72%30.02 "Hg
* Reported Dec 2 8:53 PM — Dec 17 8:53 PM, Riverside, Weather by CustomWeather, © 2014

Note: Actual official high and low records may vary slightly from our data, if they occured in-between our weather recording intervals... More about our weather records

Advertising

Riverside weather history for previous 24 hours

 ConditionsComfort  
Time TempWeatherWind HumidityBarometerVisibility
8:53 PM
Dec 17
54 °FOvercast.3 mph74%30.07 "Hg10 mi
7:53 PM55 °FOvercast.No wind67%30.06 "Hg10 mi
6:53 PM56 °FOvercast.3 mph62%30.06 "Hg10 mi
5:53 PM57 °FOvercast.8 mph60%30.06 "Hg10 mi
4:53 PM58 °FOvercast.3 mph62%30.03 "Hg10 mi
3:53 PM58 °FPartly sunny.No wind65%30.02 "Hg10 mi
2:53 PM60 °FBroken clouds.3 mph62%30.02 "Hg10 mi
1:53 PM60 °FBroken clouds.6 mph60%30.01 "Hg10 mi
12:53 PM60 °FPassing clouds.6 mph60%30.01 "Hg10 mi
11:53 AM59 °FPartly sunny.3 mph62%30.01 "Hg10 mi
10:53 AM58 °FPartly sunny.5 mph65%30.03 "Hg10 mi
9:53 AM56 °FScattered clouds.6 mph72%30.03 "Hg10 mi
9:00 AM53 °FMostly cloudy.3 mph83%30.05 "Hg10 mi
7:53 AM50 °FCloudy.No wind93%30.00 "Hg10 mi
6:53 AM49 °FPartly sunny.3 mph93%29.98 "Hg10 mi
5:53 AM50 °FPassing clouds.3 mph89%29.96 "Hg10 mi
4:53 AM52 °FHeavy rain. Fog.3 mph93%29.94 "Hg2 mi
3:53 AM52 °FOvercast.No wind93%29.92 "Hg10 mi
2:53 AM52 °FLight rain. Overcast.9 mph89%29.94 "Hg8 mi
1:53 AM53 °FMostly cloudy.5 mph83%29.95 "Hg10 mi
12:53 AM52 °FMostly cloudy.5 mph86%29.95 "Hg10 mi
11:53 PM
Dec 16
51 °FClear.No wind92%29.98 "Hg9 mi
10:53 PM52 °FMostly cloudy.No wind89%29.99 "Hg9 mi
Weather by CustomWeather, © 2014

See weather overviewHow to use our weather pages